Temp_Advection
nan nan nan nan nan nan nan nan nan nan nan nan nan nan nan nan nan nan nan nan nan nan nan nan nan nan nan nan nan nan nan nan nan nan nan nan nan nan nan nan nan nan nan nan
nan -0 -1 -0 -0 -1 0 -0 -1 -0 -0 0 -0 -0 -0 -0 0 0 0 0 -0 0 0 -0 -0 -0 -0 -0 -0 0 -0 -0 0 0 -0 0 -0 0 0 0 0 0 -0 nan
nan -1 -1 0 -0 -0 0 -0 -0 -0 -0 0 0 0 -0 0 0 0 0 1 0 -0 -0 -0 0 -0 -0 0 0 0 0 0 -0 -0 0 -0 -0 0 0 -0 -0 0 0 nan
nan -1 -0 -0 -1 0 -0 -0 -1 -1 0 0 -0 0 -0 -0 -0 0 0 0 1 1 0 0 0 -0 0 0 0 -0 -0 -0 -0 -0 -0 0 0 -0 -0 -0 -0 -0 -0 nan
nan -0 -0 -0 -1 -0 -0 0 -0 -0 -0 0 0 -0 0 -1 -1 -0 -0 0 0 0 1 1 -0 0 0 0 0 -0 0 0 -0 -0 -0 0 0 -0 -0 -0 -0 -0 -0 nan
nan -1 -0 -1 0 -0 -1 -1 -1 -0 -0 0 -0 0 -0 -1 -3 -1 0 0 0 -0 0 -0 -0 0 0 0 0 0 0 0 0 0 0 0 -0 0 -0 -0 0 -0 -0 nan
nan -0 -0 0 -1 0 -1 -1 -0 0 0 -0 0 -0 -0 -0 -1 -0 0 -0 -0 0 -1 -0 0 -0 0 0 0 0 -0 0 0 0 0 -0 -0 -0 -0 0 0 -0 -0 nan
nan -1 0 0 -1 -1 -0 -0 -0 -0 -0 -0 -0 -0 0 -0 0 1 0 0 0 -0 -0 -0 -0 -0 -0 -0 -0 -0 0 0 -0 0 0 -0 -0 -0 0 0 -0 -0 -0 nan
nan -0 -0 -0 -0 -1 -1 -0 -1 -0 0 -0 -0 0 -0 0 0 1 1 1 -0 -1 0 -0 -1 -0 -0 -0 -0 0 0 0 -0 -0 -0 -0 -0 0 0 0 0 -0 -0 nan
nan -0 -0 -1 0 -0 -0 -0 -0 -0 0 -0 -0 -0 -0 0 -0 0 1 1 -0 -0 -1 -0 -0 0 -0 0 0 -0 0 0 -0 -0 -0 -0 -0 -0 0 0 -0 -0 -0 nan
nan 0 -1 -0 0 0 -0 -0 -0 -0 0 0 0 -0 -0 1 0 0 0 -0 1 0 -1 -0 -0 0 -0 1 0 -0 0 0 0 0 0 0 0 0 -0 -0 -0 -0 -0 nan
nan 0 -0 -0 -1 0 0 -0 -0 0 0 0 0 0 -0 -0 -0 0 0 0 0 -0 0 0 0 0 0 1 -0 0 1 0 0 0 0 0 0 0 0 0 0 0 0 nan
nan -0 -0 -1 -1 -1 0 -0 -0 0 0 -0 0 0 -0 -0 0 0 1 0 -0 -0 0 0 0 0 0 -0 -0 1 0 -0 -0 0 0 0 -0 -0 -0 0 0 0 0 nan
nan -0 -0 -0 -0 -0 0 -0 -0 -0 -0 -0 0 0 -0 -0 0 -0 -0 0 -0 -0 -0 0 0 0 0 0 1 0 0 0 0 0 0 -0 -0 0 -0 0 0 -0 0 nan
nan 0 0 -0 -0 -0 -0 -0 -0 0 -0 -0 -0 -0 0 -0 0 -0 -0 0 0 1 1 1 1 1 0 1 0 0 0 0 1 0 -0 -0 -0 0 -0 0 0 0 0 nan
nan -0 0 -0 -0 0 -0 -1 -0 -0 -1 -1 -0 -0 0 -0 0 0 -0 -0 0 1 1 1 1 1 0 1 0 1 1 1 0 -0 -0 -0 1 1 -0 0 0 0 0 nan
nan -0 -0 -0 -0 -0 -1 -0 1 -0 -0 -0 -0 -0 -0 -0 0 -0 -0 -0 0 1 0 -0 0 0 1 2 2 1 0 0 0 0 0 0 1 0 -0 0 0 0 0 nan
nan -0 0 -0 -0 0 -0 -0 0 -1 -1 -1 -0 -0 -0 -0 0 0 1 -0 0 -0 0 0 0 0 1 1 2 1 1 1 1 2 1 2 1 -0 -0 0 0 -0 -0 nan
nan -0 0 0 0 -0 -0 -0 -0 -0 -0 -0 -0 -0 -0 -0 -0 -0 -0 0 1 1 0 -0 0 0 -0 0 1 1 1 1 1 1 1 0 -0 -0 0 0 -1 -0 1 nan
nan -0 0 0 0 0 -0 -0 0 -0 -0 -0 -0 -0 -0 0 -0 0 -0 0 -0 0 0 0 0 0 0 0 0 0 0 -0 0 0 0 0 0 0 0 0 0 0 0 nan
nan 0 0 0 0 -0 -0 -1 -0 -0 -0 -0 -0 -0 -0 -0 0 0 0 0 -0 -0 -0 0 0 0 0 0 0 0 0 0 0 0 0 0 0 0 0 0 0 -0 0 nan
nan -0 0 0 0 -0 -1 -0 -0 -0 0 1 -0 -0 -1 -1 -0 0 0 -0 -0 0 0 0 0 0 0 0 0 0 0 -0 0 0 0 0 0 0 0 0 0 0 0 nan
nan -0 0 -0 -0 0 0 1 -0 0 -0 0 0 0 -0 -1 -1 -0 -0 -0 0 0 0 0 0 0 0 0 0 -0 0 0 -0 -0 0 0 0 0 0 0 0 0 0 nan
nan -0 -0 0 0 0 0 0 0 0 0 0 0 -0 0 -0 -0 -0 0 -0 0 0 0 -0 0 0 0 0 0 0 0 0 0 0 0 0 0 0 0 0 0 0 0 nan
nan -0 -0 -0 -0 -0 -0 -0 0 0 -0 -0 0 0 0 -0 -0 -0 -0 -0 -0 -0 -0 -0 0 0 0 0 0 0 0 0 0 0 0 0 0 0 0 0 0 0 0 nan
nan nan nan nan nan nan nan nan nan nan nan nan nan nan nan nan nan nan nan nan nan nan nan nan nan nan nan nan nan nan nan nan nan nan nan nan nan nan nan nan nan nan nan nan
Wind_Speed
4 3 5 10 7 3 5 2 8 4 6 6 5 7 6 8 8 3 8 26 38 39 36 34 33 30 24 21 21 18 20 28 25 22 17 19 19 16 14 10 6 5 7 10
4 5 11 7 3 8 10 2 5 4 5 1 4 4 4 6 5 5 7 31 29 29 34 35 36 32 26 22 21 23 20 28 22 22 20 22 16 16 14 11 8 7 8 7
6 11 12 6 8 12 4 7 9 6 8 3 4 3 6 0 4 6 9 28 34 35 39 38 36 31 26 24 23 25 20 19 18 24 19 19 17 19 19 15 10 8 5 6
7 15 12 8 10 6 5 3 11 12 9 3 5 3 2 4 5 8 15 19 29 33 39 38 35 32 27 23 22 23 19 18 23 24 21 21 17 19 17 14 8 11 7 9
9 5 6 8 11 4 6 16 9 10 5 4 3 4 5 8 13 17 20 24 26 27 35 38 35 30 27 22 23 22 20 17 27 26 27 18 17 17 14 15 13 14 11 9
10 16 6 8 9 11 15 17 7 5 3 3 9 3 4 10 28 17 18 25 29 28 31 30 30 29 28 26 24 23 21 19 28 27 26 19 19 18 15 16 16 14 14 13
6 6 4 11 11 14 16 10 1 3 3 2 10 3 6 5 16 19 20 21 30 33 31 30 30 25 28 29 27 24 22 22 27 28 24 22 20 20 18 16 15 16 15 12
2 7 4 2 10 13 12 8 4 5 4 4 4 5 3 7 14 23 27 27 26 29 33 32 32 23 28 27 27 25 23 23 26 26 25 21 24 23 18 16 15 13 15 14
0 5 5 4 4 9 6 6 10 5 2 3 5 1 4 4 8 19 22 28 30 33 36 32 33 34 26 25 29 27 24 23 24 25 25 23 22 22 19 17 16 15 13 13
6 3 2 7 3 3 7 5 3 3 3 4 3 4 5 9 11 14 18 28 30 33 34 37 34 29 33 27 29 29 26 23 20 23 22 24 21 21 19 17 20 17 14 12
5 4 8 2 3 7 3 2 4 4 4 5 3 4 4 13 6 9 5 12 30 36 37 41 38 31 35 30 35 28 28 25 20 21 21 21 19 20 20 19 16 20 17 16
4 5 2 6 8 3 5 3 3 5 6 3 4 4 5 6 9 15 10 5 7 19 35 37 41 35 37 39 36 29 28 28 22 19 21 20 18 19 20 17 17 17 18 14
5 4 3 8 7 9 7 3 1 2 2 3 5 4 5 11 12 14 16 8 2 8 23 36 40 40 36 38 42 35 32 31 28 21 20 19 17 18 19 15 12 17 20 16
3 5 5 4 5 2 4 6 5 3 2 2 2 4 4 5 3 5 6 2 5 11 12 34 41 44 40 39 40 36 30 29 24 20 22 23 17 17 19 17 14 15 17 20
5 4 2 2 2 3 3 7 10 7 5 4 3 5 2 1 2 4 8 4 8 17 20 30 38 40 40 39 40 37 28 29 29 28 26 27 23 22 19 17 16 15 17 17
5 1 2 6 6 6 7 16 19 12 12 11 9 6 2 5 2 4 7 9 10 14 12 27 30 32 37 36 31 37 38 25 28 35 28 28 27 26 26 23 19 20 19 18
3 3 3 3 6 3 8 7 17 13 12 3 4 2 4 4 5 9 11 16 16 14 11 2 22 23 31 29 28 35 33 20 18 27 23 19 23 21 27 27 25 23 23 22
3 3 2 1 5 5 4 5 12 16 9 9 9 4 5 8 12 14 11 16 15 11 15 10 10 14 15 19 25 26 23 21 15 26 25 30 26 20 20 24 24 26 24 22
4 4 3 4 1 1 1 3 3 5 2 2 7 7 13 16 16 14 9 11 18 16 14 16 14 12 8 13 17 18 18 15 17 23 34 30 22 25 26 27 29 28 24 24
8 6 5 2 3 2 1 4 10 5 2 8 12 9 10 3 2 2 1 4 7 12 11 10 11 11 13 16 15 17 14 11 10 9 8 8 9 8 9 6 7 9 13 17
4 4 4 2 2 1 3 13 6 5 5 10 14 11 6 3 3 9 3 1 2 1 4 6 8 11 14 13 9 11 9 7 9 9 8 6 7 7 6 6 4 3 8 13
3 3 1 2 3 1 9 4 6 4 6 14 14 8 9 12 11 7 3 1 3 3 4 7 7 9 7 7 6 5 6 9 9 8 6 6 6 5 5 4 4 3 5 9
2 5 4 5 5 3 6 13 9 6 7 12 14 13 11 13 11 6 4 3 5 5 8 10 8 10 11 7 3 2 1 2 6 9 10 9 9 7 9 9 10 9 7 4
4 3 4 4 2 2 6 7 9 7 11 7 11 13 11 10 10 9 5 6 5 7 7 6 6 6 8 8 7 5 4 5 6 9 10 9 7 9 9 9 9 8 8 6
5 4 4 1 1 3 5 8 10 7 6 11 13 8 10 8 7 8 9 7 7 7 8 7 5 4 4 4 4 5 7 7 10 10 10 10 10 10 9 8 8 8 8 6
5 6 4 6 14 8 7 11 12 12 5 9 10 14 10 5 7 6 10 9 6 6 7 7 6 5 6 7 7 7 7 7 6 8 9 9 7 6 7 8 7 10 9 6
Wind_Direction
255 95 210 217 212 64 289 12 155 126 359 223 202 186 214 165 153 119 131 168 167 171 175 177 178 172 168 168 165 161 159 163 163 167 178 179 183 177 173 162 133 156 127 175
17 214 233 223 242 245 272 173 69 92 235 209 9 292 289 175 188 122 142 164 177 169 173 174 177 177 179 180 177 168 171 175 177 176 171 175 184 187 192 192 185 186 171 174
180 235 236 219 247 257 158 150 178 179 117 50 183 132 295 59 150 112 172 161 167 170 174 175 177 181 186 185 186 177 176 185 180 186 187 180 180 180 180 187 203 203 190 177
229 257 236 231 231 224 98 286 154 132 140 161 349 144 314 294 257 176 191 180 161 165 174 179 184 183 191 192 194 184 182 190 191 184 187 189 185 179 189 190 201 200 202 219
244 247 203 234 226 141 148 147 143 141 77 102 330 89 238 288 252 221 188 196 182 165 175 177 182 191 194 202 198 196 196 196 191 187 188 196 208 202 209 206 200 193 199 194
249 270 175 218 209 123 130 95 91 77 107 107 219 226 218 217 227 221 221 189 188 177 172 181 189 199 196 202 204 204 205 202 196 196 197 199 203 206 215 197 203 204 208 210
320 279 264 228 87 105 109 96 6 5 5 229 192 259 249 262 227 217 220 216 195 185 178 181 185 200 203 204 207 208 206 203 202 204 204 205 207 208 204 211 216 214 214 208
272 329 163 218 146 154 143 156 174 175 177 162 189 242 242 290 217 184 207 202 211 199 186 188 192 197 200 208 209 213 208 208 203 208 210 209 208 208 208 222 221 227 217 209
307 274 325 314 164 133 124 177 184 120 337 80 175 55 320 282 114 148 175 181 199 212 202 202 199 204 212 214 214 212 214 211 212 212 214 213 211 209 216 221 220 218 212 214
247 349 303 294 117 80 139 177 70 3 154 218 183 157 187 230 190 165 166 177 198 205 207 209 208 214 210 224 214 217 219 214 217 210 213 215 217 215 217 216 217 226 225 237
122 96 298 19 151 182 43 34 71 128 145 172 171 236 52 227 190 160 202 221 191 194 201 211 215 216 213 220 219 212 210 214 216 217 213 212 214 215 215 216 220 218 219 223
322 129 268 246 314 238 112 28 101 125 268 184 144 254 2 62 62 71 60 53 272 202 198 210 210 214 216 212 210 215 210 207 215 221 219 217 216 220 220 219 217 220 222 225
305 49 15 347 355 6 40 8 79 211 80 219 126 249 34 58 48 21 31 44 231 233 199 204 210 209 209 204 211 209 208 211 211 213 216 217 229 222 220 220 219 221 223 227
59 72 140 169 202 180 332 339 41 105 76 200 191 136 42 34 53 22 5 40 193 213 209 206 212 208 206 210 211 208 208 215 214 230 219 217 216 225 222 218 222 231 226 229
81 81 330 274 255 206 242 28 23 21 283 147 109 105 143 296 208 343 37 56 212 195 198 205 214 210 211 209 210 215 213 209 215 220 218 223 217 231 234 231 230 232 228 230
4 358 88 2 359 322 70 48 49 49 59 72 80 63 212 70 125 66 37 53 88 108 146 186 214 215 215 206 208 214 208 230 237 212 223 228 220 225 236 236 239 245 246 243
72 96 52 305 319 345 42 0 58 53 31 68 43 59 64 62 53 32 73 63 78 65 66 39 233 224 223 203 203 211 216 195 209 217 219 227 228 239 235 229 232 235 240 245
108 94 89 281 3 57 218 314 92 72 62 82 80 72 112 106 72 73 97 98 98 116 149 188 206 227 210 201 203 205 206 223 219 215 205 214 231 243 255 249 250 243 235 234
46 104 55 105 89 304 66 341 26 122 349 93 125 123 133 110 84 47 67 89 106 109 124 151 177 185 148 176 182 193 201 196 176 172 204 228 227 241 251 253 250 250 241 242
50 68 106 76 107 139 273 308 352 104 40 188 150 156 174 173 65 242 359 59 84 109 120 131 128 133 146 167 187 203 179 157 153 160 185 195 204 215 226 219 220 248 260 248
18 13 94 75 112 253 321 317 336 96 220 186 164 157 162 128 250 155 169 50 10 27 109 113 111 118 134 144 149 150 150 163 160 159 162 172 188 201 217 240 260 279 271 250
135 120 160 83 99 225 335 2 107 240 23 166 171 159 124 126 134 140 150 61 83 113 98 105 128 128 139 143 158 146 154 136 132 139 152 159 161 173 180 201 199 175 122 174
34 167 176 157 208 176 76 127 134 78 77 44 165 159 148 145 156 158 136 105 95 108 121 129 141 146 150 160 184 238 185 143 150 157 155 149 146 148 144 145 140 130 139 128
327 141 116 83 142 160 160 124 123 102 49 72 152 162 165 158 166 169 157 139 117 109 108 120 142 159 164 168 178 186 193 193 185 184 176 160 150 158 173 169 158 150 145 146
196 134 137 29 284 188 228 209 170 136 71 97 130 140 146 138 160 179 165 159 142 130 117 111 111 124 141 148 159 157 165 173 177 166 160 159 158 157 162 162 170 177 180 182
191 182 153 214 205 188 213 210 206 217 110 126 156 146 144 126 133 150 158 155 147 132 125 123 122 123 127 130 131 139 150 147 159 155 142 134 139 150 156 156 172 163 160 161
Height
1505 1513 1519 1512 1512 1516 1520 1521 1522 1535 1531 1530 1530 1534 1531 1533 1534 1536 1538 1543 1544 1549 1553 1557 1561 1566 1568 1572 1576 1579 1581 1583 1585 1587 1589 1591 1594 1597 1598 1599 1599 1599 1600 1601
1511 1518 1504 1505 1511 1516 1514 1520 1535 1540 1535 1533 1535 1537 1533 1532 1534 1536 1536 1540 1545 1548 1553 1557 1561 1564 1567 1570 1575 1578 1581 1584 1585 1588 1590 1592 1594 1596 1598 1599 1600 1601 1602 1602
1515 1503 1500 1506 1512 1514 1516 1522 1526 1529 1530 1537 1536 1542 1538 1532 1532 1532 1537 1537 1542 1544 1548 1555 1559 1562 1566 1568 1572 1577 1580 1583 1585 1588 1589 1592 1594 1596 1598 1599 1600 1601 1603 1604
1507 1495 1499 1502 1507 1505 1520 1511 1513 1524 1534 1548 1539 1557 1541 1535 1535 1536 1538 1538 1540 1543 1548 1552 1558 1561 1564 1567 1571 1575 1579 1582 1584 1586 1589 1591 1594 1595 1598 1600 1600 1601 1602 1604
1503 1494 1497 1499 1496 1494 1513 1504 1519 1523 1540 1543 1546 1552 1543 1540 1535 1529 1533 1536 1540 1543 1545 1549 1555 1560 1563 1567 1570 1574 1578 1581 1583 1585 1588 1589 1592 1595 1597 1598 1600 1601 1602 1603
1494 1489 1488 1488 1484 1490 1504 1512 1526 1532 1540 1553 1542 1542 1541 1533 1514 1526 1529 1533 1537 1541 1547 1549 1554 1559 1562 1566 1570 1573 1576 1578 1581 1583 1585 1588 1591 1593 1595 1597 1598 1600 1601 1603
1492 1486 1480 1481 1494 1494 1502 1520 1550 1556 1559 1548 1536 1542 1524 1516 1513 1522 1525 1531 1535 1538 1543 1545 1550 1556 1560 1563 1567 1570 1573 1576 1579 1581 1583 1585 1588 1591 1593 1595 1597 1597 1600 1601
1512 1511 1480 1474 1483 1503 1506 1520 1542 1559 1558 1544 1542 1537 1517 1509 1495 1508 1516 1524 1532 1537 1540 1543 1547 1551 1556 1560 1564 1569 1571 1574 1576 1579 1582 1584 1586 1589 1592 1594 1595 1596 1597 1598
1505 1500 1477 1474 1473 1480 1496 1518 1497 1526 1525 1535 1531 1528 1514 1509 1504 1505 1511 1516 1524 1531 1536 1540 1542 1547 1553 1557 1560 1565 1568 1571 1575 1578 1580 1581 1583 1586 1589 1591 1594 1595 1596 1597
1491 1504 1482 1477 1474 1477 1483 1489 1516 1527 1539 1544 1524 1527 1533 1513 1504 1498 1502 1505 1513 1520 1529 1534 1538 1543 1548 1552 1557 1561 1566 1570 1572 1575 1578 1579 1581 1583 1586 1588 1589 1592 1594 1596
1481 1497 1496 1482 1485 1492 1494 1502 1505 1515 1523 1532 1536 1524 1501 1501 1497 1499 1503 1509 1506 1508 1515 1525 1533 1538 1544 1550 1554 1558 1563 1567 1570 1573 1576 1578 1580 1581 1582 1585 1588 1590 1592 1594
1486 1501 1507 1498 1483 1477 1484 1497 1506 1527 1522 1524 1523 1525 1502 1499 1500 1507 1509 1507 1511 1512 1511 1516 1526 1534 1539 1545 1550 1553 1558 1564 1567 1570 1573 1576 1579 1581 1581 1582 1584 1587 1590 1591
1487 1505 1520 1509 1498 1488 1499 1497 1500 1506 1515 1518 1529 1526 1505 1501 1501 1501 1503 1505 1510 1512 1514 1516 1524 1529 1534 1540 1545 1550 1554 1559 1562 1566 1569 1573 1577 1579 1581 1581 1581 1583 1586 1589
1485 1503 1517 1530 1518 1509 1507 1501 1498 1506 1522 1519 1517 1519 1511 1508 1505 1503 1502 1504 1504 1508 1510 1515 1521 1525 1530 1536 1541 1546 1551 1556 1560 1563 1565 1569 1572 1576 1578 1579 1580 1581 1583 1586
1493 1507 1505 1504 1501 1505 1500 1503 1499 1506 1502 1507 1513 1518 1518 1513 1511 1509 1507 1501 1502 1502 1504 1512 1518 1524 1529 1534 1539 1544 1548 1551 1555 1559 1561 1564 1567 1572 1574 1576 1577 1579 1580 1582
1498 1512 1506 1511 1504 1503 1510 1502 1501 1503 1504 1509 1514 1521 1514 1517 1513 1511 1505 1507 1509 1510 1508 1507 1519 1522 1527 1531 1536 1541 1544 1547 1548 1553 1557 1561 1564 1566 1570 1572 1573 1575 1577 1578
1504 1513 1519 1524 1511 1504 1525 1526 1515 1515 1511 1514 1525 1523 1520 1520 1521 1516 1514 1516 1514 1514 1512 1512 1522 1523 1527 1531 1535 1538 1541 1543 1545 1550 1554 1557 1560 1563 1566 1568 1570 1571 1573 1576
1504 1512 1521 1527 1519 1541 1527 1514 1508 1519 1523 1524 1525 1526 1525 1525 1523 1522 1521 1520 1519 1518 1523 1528 1518 1525 1530 1531 1534 1536 1539 1541 1544 1547 1548 1553 1557 1559 1561 1565 1566 1566 1569 1571
1500 1513 1527 1535 1540 1525 1523 1519 1518 1519 1531 1525 1526 1528 1527 1526 1524 1525 1524 1525 1525 1525 1524 1525 1523 1529 1522 1524 1532 1537 1540 1543 1544 1546 1553 1554 1554 1557 1561 1562 1562 1561 1562 1564
1504 1509 1520 1531 1532 1539 1526 1518 1516 1515 1538 1527 1525 1526 1525 1525 1531 1529 1525 1525 1525 1526 1525 1526 1527 1529 1531 1537 1536 1537 1538 1542 1544 1547 1550 1552 1553 1555 1557 1558 1559 1559 1560 1561
1525 1527 1533 1536 1536 1532 1522 1517 1516 1533 1541 1525 1526 1526 1526 1526 1527 1527 1527 1526 1525 1525 1526 1526 1524 1528 1532 1536 1540 1540 1538 1539 1542 1544 1547 1550 1552 1553 1554 1555 1557 1557 1557 1558
1525 1532 1536 1538 1541 1541 1521 1518 1528 1529 1526 1524 1525 1526 1524 1526 1527 1529 1529 1529 1529 1528 1526 1526 1528 1525 1533 1534 1536 1539 1539 1540 1543 1544 1547 1548 1550 1551 1552 1554 1556 1559 1558 1559
1528 1524 1531 1532 1533 1524 1522 1520 1522 1523 1524 1523 1524 1526 1525 1525 1528 1529 1529 1531 1531 1531 1531 1533 1534 1535 1535 1536 1538 1538 1538 1540 1544 1545 1547 1552 1553 1555 1554 1556 1557 1557 1559 1560
1517 1516 1524 1526 1525 1524 1524 1523 1522 1521 1520 1520 1523 1524 1526 1526 1530 1532 1532 1534 1533 1532 1531 1533 1534 1534 1534 1535 1536 1537 1541 1544 1544 1544 1547 1549 1551 1552 1554 1556 1557 1558 1558 1561
1515 1515 1521 1526 1523 1523 1522 1520 1519 1519 1518 1519 1523 1526 1528 1528 1529 1532 1533 1535 1535 1534 1535 1536 1538 1538 1538 1539 1540 1540 1542 1546 1545 1546 1549 1549 1552 1552 1554 1555 1557 1559 1558 1561
1510 1512 1520 1523 1512 1515 1515 1515 1516 1516 1519 1520 1522 1524 1527 1528 1530 1530 1532 1534 1535 1536 1537 1539 1542 1543 1542 1543 1543 1544 1546 1548 1551 1551 1552 1553 1554 1556 1555 1554 1559 1558 1558 1559